Regional Weather Roundup
Issued by NWS

Home | Current Version | Previous Version | Graphics & Text | Print | Product List | Glossary On
Versions: 1 2 3 4 5 6 7 8 9 10 11 12 13 14 15 16 17 18 19 20 21 22 23 24 25 26 27 28 29 30 31 32 33 34 35 36 37 38 39 40 41 42 43 44 45 46 47 48 49 50
001
ASUS44 KLIX 302205
RWRLA
LOUISIANA WEATHER ROUNDUP
NATIONAL WEATHER SERVICE NEW ORLEANS LA
400 PM CST FRI JAN 30 2015

NOTE: "FAIR" INDICATES FEW OR NO CLOUDS BELOW 12,000 FEET WITH NO
      SIGNIFICANT WEATHER AND/OR OBSTRUCTIONS TO VISIBILITY.
      SKY/WX - SKY CONDITION AND SIGNIFICANT WEATHER.
      TMP - AIR TEMPERATURE.    DP   - DEWPOINT TEMPERATURE.
      RH  - RELATIVE HUMIDITY.  PRES - PRESSURE.
      HX  - HEAT INDEX.         WCI  - WIND CHILL INDEX.

*  THESE STATIONS ARE NOT NWS OR FAA STATIONS AND ARE NOT UNDER
   NWS QUALITY CONTROL.

LAZ040-048-061>063-065-066-069-302300-
SOUTHEAST LOUISIANA

CITY           SKY/WX    TMP DP  RH WIND       PRES   REMARKS
N.O. AUDUBON     N/A     56  38  52 MISG        N/A
N.O. INTL ARPT PTSUNNY   57  34  41 N8        30.32F
N.O. LAKEFRONT MOSUNNY   57  41  55 W6        30.33S
N.O. DOWNTOWN* NOT AVBL
SLIDELL        MOSUNNY   62  31  31 N7        30.31S
BATON ROUGE    MOSUNNY   61  27  27 NE6       30.33S
BOOTHVILLE     PTSUNNY   54  41  61 N5        30.32S
BELLE CHASSE   PTSUNNY   58  33  39 VRB6      30.31S
BOGALUSA*        N/A     60  28  29 NE7       30.34S
GALLIANO*      MOCLDY    62  37  40 MISG      30.31S
NEW ROADS*     FAIR      59  30  33 N7        30.34S
GONZALES*      FAIR      62  31  30 NE5       30.32S
HAMMOND*       PTSUNNY   59  27  29 NE5       30.34S
HOUMA*         SUNNY     59  34  38 N13       30.31F
PORT FOURCHON* CLEAR     57  41  54 NE14      30.33F

$$

LAZ041-044-053-054-302300-
SOUTHWEST LOUISIANA

CITY           SKY/WX    TMP DP  RH WIND       PRES   REMARKS
LAKE CHARLES   MOSUNNY   61  34  36 E12       30.32F
LAFAYETTE      MOSUNNY   60  35  39 N7        30.33S
PATTERSON      MOSUNNY   61  36  39 NE12      30.33S
SALT POINT       N/A     61  34  36 VRB5      30.30S
NEW IBERIA     MOSUNNY   63  33  32 NE10      30.33S
CHENAULT AIRPK NOT AVBL

$$

LAZ027-028-302300-
CENTRAL LOUISIANA

CITY           SKY/WX    TMP DP  RH WIND       PRES   REMARKS
FORT POLK      SUNNY     57  32  38 NE8       30.34S
ALEXANDRIA INT MOSUNNY   59  30  33 NE8       30.34F
ALEXANDRIA     PTSUNNY   58  31  35 VRB5      30.36F

$$

LAZ001-002-302300-
NORTHWEST LOUISIANA

CITY           SKY/WX    TMP DP  RH WIND       PRES   REMARKS
SHREVEPORT     PTSUNNY   58  27  30 E8        30.37F
BARKSDALE AFB  SUNNY     58  29  33 N5        30.37F
DTN SHREVEPORT SUNNY     57  27  31 VRB5      30.37F

$$

LAZ014-016-302300-
NORTHEAST LOUISIANA

CITY           SKY/WX    TMP DP  RH WIND       PRES   REMARKS
MONROE         SUNNY     53  32  44 NE12      30.41S
TALLULAH       SUNNY     54  33  45 N13       30.38S

$$




USA.gov is the U.S. government's official web portal to all federal, state and local government web resources and services.